Regional Weather Roundup
Issued by NWS Midland/Odessa, TX

Skip options and go directly to product.
Home | Oldest Version | Previous Version | Current Version | All | Graphics & Text | Save Text | Print | Product List | Glossary On

Skip product version selection by date and time.   
784
ASUS44 KMAF 310710
RWRMAF
MIDLAND AREA WEATHER ROUNDUP
NATIONAL WEATHER SERVICE MIDLAND TX
200 AM CDT FRI JUL 31 2015

...IN SOUTHWEST TEXAS AND SOUTHEAST NEW MEXICO...

CITY           SKY/WX    TMP DP  RH WIND       PRES   REMARKS
ALPINE         CLEAR     70  49  47 SW3       30.32S
ANDREWS        FAIR      79  60  50 E6        30.20R
ARTESIA        CLOUDY    75  70  83 N10       30.25S
BIG SPRING     PTCLDY    80  57  45 E8        30.18R
CARLSBAD       CLOUDY    84  60  44 N13       30.18R
DRYDEN           N/A     79  51  37 W6        30.12S
FORT STOCKTON  CLEAR     79  48  33 S13       30.16S
GUAD PASS      CLOUDY    75  48  38 NE12      30.33F
HOBBS          PTCLDY    75  63  64 E8        30.24R
MARFA          CLEAR     64  50  59 N3        30.30S
MIDLAND AIRPK  PTCLDY    83  56  40 SE8       30.18R
MIDLAND INTL   PTCLDY    82  57  42 SE9       30.17R
ODESSA         CLEAR     83  55  38 SE8       30.18R
PECOS          CLEAR     76  46  34 CALM      30.13R
PRESIDIO       FAIR      85  48  27 MISG      30.12S
SEMINOLE       PTCLDY    77  63  61 E5        30.22S
SNYDER         MOCLDY    82  64  53 NE3       30.16S
WINK           CLEAR     83  51  33 SE8       30.14R
$$
...OTHER STATIONS IN TEXAS...

CITY           SKY/WX    TMP DP  RH WIND       PRES   REMARKS
ABILENE        CLEAR     77  65  66 S7        30.12R
AMARILLO       PTCLDY    73  67  81 E8        30.27S
AUSTIN         PTCLDY    78  70  76 CALM      30.03S
BROWNSVILLE    CLEAR     76  74  93 CALM      30.02F
CORPUS CHRISTI MOCLDY    80  74  81 SW5       30.01F
DALLAS FTW     PTCLDY    86  70  58 E6        30.06R
DEL RIO        CLEAR     83  61  47 E9        30.05R
EL PASO        CLOUDY    76  67  73 SW5       30.20R
HOUSTON INT    MOCLDY    79  76  90 E3        30.01F
LUBBOCK        MOCLDY    75  69  81 NE6       30.21F
SAN ANGELO     CLEAR     78  58  49 S6        30.12R
SAN ANTONIO    PTCLDY    85  66  53 S6        30.06F
WACO           CLEAR     84  69  60 SE9       30.05R
WICHITA FALLS  NOT AVBL
$$
...OTHER LOCATIONS IN NEW MEXICO...

CITY           SKY/WX    TMP DP  RH WIND       PRES   REMARKS
ALAMAGORDO     CLOUDY    75  59  57 SW7       30.24S
ALBUQUERQUE    CLOUDY    72  61  68 VRB5      30.36S
CANNON AFB     CLOUDY    72  66  82 NW12      30.30R
CLOVIS         CLOUDY    72  64  78 E5        30.29F
HOLLOMAN AFB   CLOUDY    78  61  54 NW9       30.22R
ROSWELL        CLOUDY    73  63  70 N14       30.26R
RUIDOSO          N/A    N/A N/A N/A MISG        N/A
SANTA FE       CLOUDY    64  57  78 SW5       30.42F
TRUTH OR CONSE CLOUDY    72  60  66 NW8       30.27F
TUCUMCARI      CLOUDY    73  67  81 SW7       30.30R
$$

USA.gov is the U.S. government's official web portal to all federal, state and local government web resources and services.